{"data":{"norad_id":45139,"epoch":"2026-09-20T01:43:30.565920Z","epoch_age_seconds":51373,"freshness":"FRESH","line1":"1 45139U 20008J   26263.07188155 -.00000437  00000+0 -12677-2 0  9996","line2":"2 45139  87.8971   2.2051 0001643 100.2225 259.9088 13.11415707323548","mean_motion":13.11415707,"eccentricity":0.0001643,"inclination_deg":87.8971,"raan_deg":2.2051,"arg_perigee_deg":100.2225,"mean_anomaly_deg":259.9088,"bstar":-0.0012677,"rev_number":32354,"period_min":109.80499869825,"perigee_km":1216.4394848047,"apogee_km":1218.9354727284,"semimajor_km":7595.8244787665,"source":"CELESTRAK","updated_at":"2026-09-20T09:00:44.546343Z"}}